Flag Weather past 2 weeks in Cambridge, England, United Kingdom

Now
50 °F

Overcast.


Feels Like: 47 °F
Forecast: 44 / 52 °F
Wind: 7 mph from Southeast

Location: Mildenhall Royal Air Force Base

Current Time: Nov 29, 2014 at 5:46:53 AM

Latest Report: Nov 29, 2014 at 4:58 AM


Visibility: N/A

Pressure: 29.82 "Hg

Humidity: 93%

Dew point: 48 °F

Location of CambridgeLocation

Historic Weather in Cambridge — Graph

°F

Cambridge temperature yesterday

Maximum temperature yesterday: 53 °F (at 1:58 PM)
Minimum temperature yesterday: 49 °F (at 6:58 PM)
Average temperature yesterday: 51 °F

Past Weeks' High & Low Weather Summary

 TemperatureHumidityPressure
High56 °F (Nov 22, 2:58 PM)100% (Nov 14, 6:02 PM)30.35 "Hg (Nov 14, 6:02 PM)
Low28 °F (Nov 25, 5:00 AM)77% (Nov 17, 12:58 PM)29.39 "Hg (Nov 17, 4:03 AM)
Average46 °F95%29.87 "Hg
* Reported Nov 14 3:58 AM — Nov 29 3:58 AM, Cambridge, Weather by CustomWeather, © 2014

Note: Actual official high and low records may vary slightly from our data, if they occured in-between our weather recording intervals... More about our weather records

Advertising

Cambridge weather history for previous 24 hours

 ConditionsComfort  
Time TempWeatherWind HumidityBarometerVisibility
3:58 AM
Nov 29
50 °FLow clouds.9 mph92%29.81 "HgN/A
2:58 AM50 °FOvercast.10 mph92%29.79 "HgN/A
1:58 AM51 °FPassing clouds.8 mph91%29.79 "HgN/A
12:58 AM51 °FOvercast.13 mph92%29.78 "HgN/A
11:58 PM
Nov 28
51 °FPassing clouds.8 mph92%29.77 "HgN/A
10:58 PM51 °FClear.13 mph92%29.77 "HgN/A
9:58 PM51 °FPassing clouds.14 mph92%29.77 "HgN/A
8:58 PM51 °FOvercast.14 mph93%29.76 "HgN/A
7:58 PM50 °FPartly cloudy.10 mph93%29.75 "HgN/A
6:58 PM49 °FClear.8 mph94%29.73 "HgN/A
5:58 PM49 °FPassing clouds.7 mph94%29.71 "HgN/A
4:58 PM50 °FClear.7 mph93%29.70 "HgN/A
4:03 PM52 °FPassing clouds.8 mph88%29.69 "HgN/A
3:58 PM51 °FPassing clouds.8 mph91%29.70 "HgN/A
2:58 PM52 °FOvercast.9 mph90%29.68 "HgN/A
1:58 PM53 °FPartly sunny.12 mph89%29.66 "HgN/A
12:58 PM52 °FOvercast.14 mph90%29.66 "HgN/A
12:03 PM52 °FFog.12 mph94%29.65 "Hg4 mi
11:58 AM52 °FFog.12 mph94%29.66 "Hg4 mi
11:03 AM52 °FFog.15 mph94%29.66 "Hg2 mi
10:58 AM51 °FFog.15 mph96%29.67 "Hg2 mi
9:58 AM52 °FFog.14 mph95%29.66 "Hg2 mi
8:58 AM52 °FFog.10 mph95%29.65 "Hg3 mi
7:58 AM51 °FFog.9 mph95%29.65 "Hg4 mi
6:58 AM52 °FFog.8 mph94%29.64 "Hg6 mi
6:03 AM50 °FOvercast.9 mph100%29.62 "HgN/A
Weather by CustomWeather, © 2014

See weather overviewHow to use our weather pages